Probability
0 0 0 0 0 0 0 0 0 0 0 0 0 0 0 0 0 0 0 0 0 0 0 0 0 0 0 0 0 0 0 0 0 0 0 0 0 0 0 0 0 0 0 0
0 0 0 0 0 0 0 0 0 0 0 0 0 0 0 0 0 0 0 0 0 0 0 0 0 0 0 0 0 0 0 0 0 0 0 0 0 0 0 0 0 0 0 0
0 0 0 0 0 0 0 0 0 0 0 0 0 0 0 0 0 0 0 0 0 0 0 0 0 0 0 0 0 0 0 0 0 0 0 0 0 0 0 0 0 0 0 0
0 0 0 0 0 0 0 0 0 0 0 0 0 0 0 0 0 0 0 0 0 0 0 0 0 0 0 0 0 0 0 0 0 0 0 0 0 0 0 0 0 0 0 0
0 0 0 0 0 0 0 0 0 0 0 0 0 0 0 0 0 0 0 0 0 0 0 0 0 0 0 0 0 0 0 0 0 0 0 0 0 0 0 0 0 0 0 0
0 0 0 0 0 0 0 0 0 0 0 0 0 0 0 0 0 0 0 0 0 0 0 0 0 0 0 0 0 0 0 0 0 0 0 0 0 0 0 0 0 0 0 0
0 0 0 0 0 0 0 0 0 0 0 0 0 0 0 0 0 0 0 0 0 0 0 0 0 0 0 0 0 0 0 0 0 0 0 0 0 0 0 0 0 0 0 0
0 0 0 0 0 0 0 0 0 0 0 0 0 0 0 0 0 0 0 0 0 0 0 0 0 0 0 0 0 0 0 0 0 0 0 0 0 0 0 0 0 0 0 0
0 0 0 0 0 0 0 0 0 0 0 0 0 0 0 0 0 0 0 0 0 0 0 0 0 0 0 0 0 0 0 0 0 0 0 0 0 0 0 0 0 0 0 0
0 0 0 0 0 0 0 0 0 0 0 0 0 0 0 0 0 0 0 0 0 0 0 0 0 0 0 0 0 0 0 0 0 0 0 0 0 0 0 0 0 0 0 0
0 0 0 0 0 0 0 0 0 0 0 0 0 0 0 0 0 0 0 0 0 0 0 0 0 0 0 0 0 0 0 0 0 0 0 0 0 0 0 0 0 0 0 0
0 0 0 0 0 0 0 0 0 0 0 0 0 0 0 0 0 0 0 0 0 0 0 0 0 0 0 0 0 0 0 0 0 0 0 0 0 0 0 0 0 0 0 0
0 0 0 0 0 0 0 0 0 0 0 0 0 0 0 0 0 0 0 0 0 0 0 0 0 0 0 0 0 0 0 0 0 0 0 0 0 0 0 0 0 0 0 0
0 0 0 0 0 0 0 0 0 0 0 0 0 0 0 0 0 0 0 0 0 0 0 0 0 0 0 0 0 0 0 0 0 0 0 0 0 0 0 0 0 0 0 0
0 0 0 0 0 0 0 0 0 0 0 0 0 0 0 0 0 0 0 0 0 0 0 0 0 0 0 0 0 0 0 0 0 0 0 0 0 0 0 0 0 0 0 0
0 0 0 0 0 0 0 0 0 0 0 0 0 0 0 0 0 0 0 0 0 0 0 0 0 0 0 0 0 0 0 0 0 0 0 0 0 0 0 0 0 0 0 0
0 0 0 0 0 0 0 0 0 0 0 0 0 0 0 0 0 0 0 0 0 0 0 0 0 0 0 0 0 0 0 0 0 0 0 0 0 0 0 0 0 0 0 0
0 0 0 0 0 0 0 0 0 0 0 0 0 0 0 0 0 0 0 0 0 0 0 0 0 0 0 0 0 0 0 0 0 0 0 0 0 0 0 0 0 0 0 0
0 0 0 0 0 0 0 0 0 0 0 0 0 0 0 0 0 0 0 0 0 0 0 0 0 0 0 0 0 0 0 0 0 0 0 0 0 0 0 0 0 0 0 0
0 0 0 0 0 0 0 0 0 0 0 0 0 0 0 0 0 0 0 0 0 0 0 0 0 0 0 0 0 0 0 0 0 0 0 0 0 0 0 0 0 0 0 0
0 0 0 0 0 0 0 0 0 0 0 0 0 0 0 0 0 0 0 0 0 0 0 0 0 0 0 0 0 0 0 0 0 0 0 0 0 0 0 0 0 0 0 0
0 0 0 0 0 0 0 0 0 0 0 0 0 0 0 0 0 0 0 0 0 0 0 0 0 0 0 0 0 0 0 0 0 0 0 0 0 0 0 0 0 0 0 0
0 0 0 0 0 0 0 0 0 0 0 0 0 0 0 0 0 0 0 0 0 0 0 0 0 0 0 0 0 0 0 0 0 0 0 0 0 0 0 0 0 0 0 0
0 0 0 0 0 0 0 0 0 0 0 0 0 0 0 0 0 0 0 0 0 0 0 0 0 0 0 0 0 0 0 0 0 0 0 0 0 0 0 0 0 0 0 0
0 0 0 0 0 0 0 0 0 0 0 0 0 0 0 0 0 0 0 0 0 0 0 0 0 0 0 0 0 0 0 0 0 0 0 0 0 0 0 0 0 0 0 0
0 0 0 0 0 0 0 0 0 0 0 0 0 0 0 0 0 0 0 0 0 0 0 0 0 0 0 0 0 0 0 0 0 0 0 0 0 0 0 0 0 0 0 0
Wind_Speed
2 4 7 13 12 6 5 6 6 7 4 4 9 13 15 8 7 11 12 12 14 18 17 9 10 10 8 9 9 9 9 9 9 6 5 5 4 3 3 3 4 6 9 10
3 7 12 5 3 3 3 4 6 6 2 4 7 13 13 11 11 13 14 16 17 16 12 11 11 12 13 13 12 11 12 12 11 6 4 4 5 4 3 3 4 5 7 9
12 6 4 7 5 6 6 8 7 7 4 4 5 11 9 10 8 9 12 13 15 18 18 13 13 14 14 15 16 13 13 12 11 9 7 6 5 4 3 3 3 3 5 7
9 4 5 6 8 10 8 9 8 5 2 6 2 10 8 8 9 11 14 15 18 18 16 12 12 14 17 16 12 12 13 12 12 12 11 11 8 7 6 5 5 5 5 6
10 7 8 9 10 12 7 3 5 4 4 5 3 8 12 5 9 13 15 17 17 15 12 11 13 15 14 12 12 12 13 13 12 12 12 11 8 6 6 7 8 7 5 6
5 5 7 8 4 7 6 6 5 4 3 8 8 10 14 9 11 12 13 13 13 8 7 7 6 8 9 10 11 12 14 14 13 13 12 11 12 12 13 11 10 7 5 5
4 5 5 4 6 4 5 6 1 3 2 12 5 9 15 9 10 11 12 12 8 4 4 4 5 8 10 12 13 13 15 14 13 13 13 11 13 15 17 15 13 11 8 5
7 9 11 10 11 11 9 12 11 9 8 8 4 13 12 8 8 9 11 11 8 6 5 5 7 8 10 12 13 14 15 13 13 13 12 10 12 10 10 13 13 12 10 8
10 9 3 7 4 14 8 8 7 5 2 6 10 11 11 7 10 12 11 9 9 7 6 6 5 7 9 11 13 14 14 12 13 12 11 11 11 10 10 10 9 8 8 9
9 6 2 2 2 2 7 9 6 7 6 8 10 9 9 7 12 10 7 8 7 5 5 4 4 6 7 8 9 9 10 12 10 11 11 10 10 9 10 10 11 10 10 11
8 7 2 3 10 12 8 7 7 6 6 7 8 13 10 11 9 8 8 6 5 5 5 4 4 5 6 6 8 9 10 10 11 12 11 11 11 9 10 10 11 11 11 13
9 6 6 8 6 5 8 10 11 9 8 6 7 16 4 7 6 6 6 5 4 4 3 3 5 5 6 8 8 10 10 11 12 12 11 11 11 11 12 11 11 11 12 12
10 8 4 4 3 4 6 8 10 7 6 8 10 17 1 2 3 5 6 5 5 4 3 3 5 7 9 9 10 11 11 11 11 12 12 12 13 13 13 13 12 12 12 12
8 8 11 14 8 10 9 9 11 11 10 13 20 22 9 4 5 6 6 6 6 5 5 6 7 8 10 11 11 12 11 11 12 12 14 14 15 14 14 13 13 13 13 13
7 9 11 12 6 6 9 11 14 18 20 17 20 23 25 11 11 11 9 9 8 7 7 9 10 10 10 11 12 13 13 12 13 14 15 15 13 13 12 13 13 13 12 12
8 8 9 14 14 10 10 13 17 21 19 22 22 32 22 8 9 10 11 11 12 11 11 10 11 11 12 14 14 14 15 14 13 15 14 12 13 13 14 14 14 13 13 12
7 7 8 14 11 9 20 24 20 15 14 14 25 34 18 10 12 14 13 11 12 12 11 11 11 12 13 14 15 16 14 12 13 14 12 13 14 14 14 14 14 15 14 13
9 9 8 9 11 22 15 12 19 22 21 20 18 21 16 14 12 11 9 9 11 11 10 10 9 10 11 10 11 10 10 12 13 12 12 13 13 14 13 14 15 14 12 13
15 13 10 9 16 15 11 7 12 17 22 23 26 26 24 14 7 13 8 8 10 9 8 8 8 8 7 8 9 10 10 11 12 13 12 12 13 13 14 15 14 11 11 10
16 15 14 14 15 12 11 6 7 9 14 13 16 22 22 10 9 14 2 3 4 5 5 5 5 4 4 5 8 11 11 11 13 12 10 10 11 12 13 13 11 8 9 9
12 15 21 21 19 10 7 3 8 11 11 4 8 13 13 11 11 3 2 2 3 4 4 4 3 2 1 4 8 9 9 10 8 8 8 9 9 9 9 9 8 9 8 9
10 10 13 14 18 13 5 7 11 7 1 2 2 4 4 4 2 1 2 2 4 4 5 4 4 4 4 4 6 7 6 6 7 9 9 9 9 8 8 10 9 9 10 10
9 8 5 7 7 3 5 6 4 2 3 3 3 3 3 2 2 1 1 2 3 4 4 4 5 6 6 4 4 5 4 7 9 9 9 9 9 9 9 11 11 10 10 9
6 3 5 7 8 6 5 4 3 3 3 3 2 2 2 3 2 2 2 2 2 3 4 4 5 6 6 5 5 5 5 7 9 9 8 8 9 8 8 8 9 9 9 9
6 4 5 8 5 4 5 6 5 3 2 2 1 1 2 3 3 3 2 2 3 3 4 4 5 6 6 6 7 5 4 6 7 8 7 7 6 7 7 6 6 7 7 9
5 6 6 6 5 5 5 4 5 5 5 5 4 2 1 2 3 4 4 3 4 4 4 5 6 6 6 6 7 6 4 4 7 6 5 5 4 4 5 5 3 5 5 8
Wind_Direction
73 114 196 207 200 185 168 187 230 247 247 205 239 255 265 260 238 252 253 248 245 246 249 227 203 193 189 192 192 189 182 176 168 163 160 154 143 124 107 104 119 138 142 142
84 235 224 189 171 194 193 231 255 276 258 221 264 266 263 252 237 234 241 245 245 247 249 224 202 194 196 195 193 190 188 183 182 175 151 130 123 114 102 101 102 123 137 141
187 220 185 157 170 188 218 212 228 241 321 289 289 287 256 258 240 247 244 244 246 243 245 231 205 203 199 200 195 192 188 184 182 164 140 119 107 103 117 126 116 112 128 134
228 225 139 168 193 177 235 216 215 230 271 280 231 283 268 251 261 253 252 248 249 248 245 235 207 203 205 204 191 188 183 182 178 169 168 166 168 164 167 152 139 125 121 130
226 188 178 199 203 177 212 161 173 187 205 273 218 257 270 225 255 256 251 249 250 251 245 235 213 208 203 190 184 185 181 182 178 178 179 177 164 140 136 135 135 129 122 127
241 196 198 207 171 166 134 88 74 60 96 264 206 213 267 202 217 238 246 249 254 267 265 249 220 191 184 177 180 183 184 184 180 179 181 183 165 152 150 153 150 145 136 130
257 232 217 155 108 127 141 117 32 310 263 251 186 220 254 225 223 225 243 257 268 291 288 261 203 187 182 181 184 186 187 186 181 180 183 182 170 165 165 163 162 158 154 157
203 248 204 188 175 169 187 167 178 207 231 268 227 238 254 247 258 260 260 268 286 286 275 251 217 197 188 186 186 188 190 186 181 182 182 177 171 172 172 170 166 167 166 159
195 239 228 201 185 153 170 212 179 161 247 279 258 265 290 264 263 255 257 270 277 281 268 250 222 198 190 188 191 191 189 183 182 181 177 175 174 175 171 168 163 162 155 149
174 228 252 156 117 202 161 155 132 170 205 250 268 254 249 236 241 252 259 263 274 278 270 256 221 200 192 189 188 188 187 183 178 177 178 176 176 174 168 166 165 160 155 151
177 200 222 164 192 185 156 174 178 174 180 190 270 265 214 211 220 229 242 247 261 272 268 246 216 197 187 181 182 186 185 178 178 178 176 173 173 170 167 170 169 163 158 157
186 176 225 229 231 207 196 187 169 180 214 204 239 264 204 208 226 231 249 260 269 264 251 221 198 186 187 189 190 192 190 187 183 178 175 175 172 170 173 173 169 164 163 162
159 172 209 271 239 200 215 210 202 197 173 198 224 261 288 165 245 249 253 262 260 251 225 205 198 199 201 200 199 199 197 191 181 176 176 176 177 178 179 175 169 168 165 162
173 185 206 218 206 178 199 208 198 191 214 229 233 251 247 237 260 268 260 253 249 243 228 218 216 216 212 207 204 203 201 190 181 179 182 184 184 183 180 174 172 172 169 167
188 215 229 247 235 190 201 204 202 210 219 228 244 251 251 221 237 251 258 261 260 255 239 228 225 221 215 212 209 206 202 193 185 185 189 190 183 179 175 173 173 172 172 171
199 223 222 242 236 224 233 229 218 221 228 237 252 259 257 232 232 245 248 252 259 260 253 241 229 221 216 214 211 206 204 195 187 191 193 183 177 177 177 175 173 172 172 168
208 211 226 247 237 232 238 231 223 221 218 216 237 252 261 248 238 240 246 246 249 253 253 247 235 225 221 215 208 206 201 187 188 192 187 181 178 179 178 174 173 177 175 170
225 226 235 249 236 241 242 216 210 222 231 224 236 253 254 242 243 245 241 244 253 254 255 253 246 238 227 214 203 196 180 182 188 190 188 181 178 178 175 175 179 178 174 175
218 224 236 239 246 254 260 226 191 209 236 228 233 248 258 257 281 271 243 233 247 257 260 261 256 249 231 207 190 174 176 178 185 190 188 181 177 175 175 180 181 175 171 172
215 217 230 237 244 237 238 225 180 170 242 237 221 238 250 250 253 265 247 238 280 296 297 292 289 269 230 192 162 165 174 179 190 189 181 171 172 175 179 178 170 163 166 167
209 216 227 238 246 246 238 189 136 183 235 237 207 227 238 229 233 267 45 6 340 325 327 331 337 347 297 148 148 162 171 188 179 155 152 159 165 166 163 156 151 151 151 152
214 222 226 231 239 241 189 154 187 215 200 192 209 221 223 229 251 40 42 20 6 2 4 14 38 36 39 108 138 151 166 151 134 139 146 152 152 150 149 150 152 154 156 161
219 213 219 225 242 267 192 204 224 186 199 217 214 219 190 192 202 150 95 48 26 23 24 34 64 60 45 55 108 129 128 127 131 136 144 147 149 152 156 160 162 163 169 175
252 234 228 244 248 243 242 246 243 218 208 210 199 195 182 181 169 147 123 78 50 37 37 47 70 73 56 48 66 92 113 127 133 140 145 149 155 159 163 166 170 175 179 185
233 211 231 250 262 289 266 235 225 216 202 199 185 177 186 167 156 142 118 85 69 58 47 56 73 78 66 57 58 56 84 122 128 133 137 144 152 158 164 166 178 183 188 194
212 205 214 237 228 228 251 240 200 196 206 204 188 176 157 161 151 124 107 91 83 73 67 71 71 74 64 59 52 33 32 103 125 128 135 141 143 145 150 150 140 187 178 197